User: anonymous   Login
Location: Unspecified
(0.0000°N, 0.0000°E)
Time: 13:38:08
(UTC+00:00)
Language:

IBEX - Orbit

View from above orbital plane
View from above orbital plane
View from above satellite
View from above satellite

Ground track
Ground track

The orbit data is extracted from the following two-line orbital elements,

1 33401U 08051A   15191.19846846 -.00001673  00000-0  00000+0 0  9995
2 33401 016.0946 106.3168 5034025 060.4871 002.7415 00.10833274  2851
Epoch (UTC): 10 July 2015 04:45:47
Eccentricity: 0.5034025
inclination: 16.0946°
perigee height: 85927 km
apogee height: 273068 km
right ascension of ascending node: 106.3168°
argument of perigee: 60.4871°
revolutions per day: 0.10833274
mean anomaly at epoch: 2.7415°
orbit number at epoch: 285

The dashed part of the orbit path shows where the satellite is in the earth's shadow,  

DLR